Probability
1 0 0 0 1 2 2 2 1 0 1 1 0 0 0 1 1 1 2 7 13 13 9 8 8 6 5 4 3 2 1 0 0 0 0 0 0 0 0 0 0 0 0
2 1 0 0 0 1 1 1 0 0 1 1 0 0 0 0 0 1 2 6 11 11 9 9 8 7 5 4 3 1 0 0 0 0 0 0 0 0 0 0 0 0 0
3 1 0 0 0 0 0 0 0 0 1 1 0 0 1 0 0 0 1 4 6 7 8 8 7 7 6 5 4 3 2 2 2 1 0 0 0 0 0 0 0 0 0
4 3 1 0 0 0 0 0 0 0 0 0 0 0 0 0 0 1 2 2 2 4 5 6 7 8 8 8 8 7 5 4 3 2 0 0 0 0 0 0 0 0 0
5 4 3 1 0 1 1 0 0 0 0 0 0 0 0 0 0 1 2 1 1 1 1 4 6 8 9 11 11 9 7 5 3 2 1 0 0 0 0 0 0 0 0
6 6 4 2 1 1 1 0 0 0 0 0 0 0 0 0 0 1 1 1 1 1 1 2 5 6 8 11 11 9 6 4 4 4 3 1 0 0 0 0 0 0 0
6 5 4 2 1 1 1 0 0 0 0 0 0 0 0 0 0 0 0 0 0 1 2 3 3 4 6 9 9 7 5 5 5 6 5 2 0 0 0 0 0 0 0
4 3 2 1 0 0 0 0 0 0 0 0 0 0 0 0 0 0 0 0 0 1 2 2 2 2 4 5 5 4 3 4 6 6 4 2 0 0 0 0 0 0 0
2 2 1 0 0 1 1 1 1 1 1 0 0 0 0 0 0 0 0 0 0 0 1 1 1 1 2 3 2 2 1 2 4 4 3 1 0 0 0 0 0 0 0
1 1 0 0 0 1 2 2 2 2 2 1 0 0 0 0 0 0 0 0 0 0 0 0 0 0 1 1 1 0 0 0 1 2 2 1 0 0 0 0 0 0 0
0 0 0 0 0 1 2 3 3 3 3 2 1 0 0 0 0 0 0 0 0 0 0 0 0 0 0 0 0 0 0 0 0 1 1 1 0 0 0 0 0 0 0
0 0 0 0 0 0 1 2 3 3 3 3 1 0 0 0 0 0 0 0 0 0 0 0 0 0 0 0 0 0 0 0 0 0 0 0 0 0 0 0 0 0 0
0 0 0 0 0 0 0 1 2 2 3 3 2 1 0 0 0 0 0 0 0 0 0 0 0 0 0 0 0 0 0 0 0 0 0 0 0 0 0 0 0 0 0
0 0 0 0 0 0 0 0 1 1 1 2 2 1 0 0 0 0 0 0 0 0 0 0 0 0 0 0 0 0 0 0 0 0 0 0 0 0 0 0 0 0 0
0 0 0 0 0 0 0 0 0 0 0 1 1 0 0 0 0 0 0 0 0 0 0 0 0 0 0 0 0 0 0 0 0 0 0 0 0 0 0 0 0 0 0
0 0 0 0 0 0 0 0 0 0 0 0 0 0 0 0 0 0 0 0 0 0 0 0 0 0 0 0 0 0 0 0 0 0 0 0 0 0 0 0 0 0 0
0 0 0 0 0 0 0 0 0 0 0 0 0 0 0 0 0 0 0 0 0 0 0 0 0 0 0 0 0 0 0 0 0 0 0 0 0 0 0 0 0 0 0
0 0 0 0 0 0 0 0 0 0 0 0 0 0 0 0 0 0 0 0 0 0 0 0 0 0 0 0 0 0 0 0 0 0 0 0 0 0 0 0 0 0 0
0 0 0 0 0 0 0 0 0 0 0 0 0 0 0 0 0 0 0 0 0 0 0 0 0 0 0 0 0 0 0 0 0 0 0 0 0 0 0 0 0 0 0
0 0 0 0 0 0 0 0 0 0 0 0 0 0 0 0 0 0 0 0 0 0 0 0 0 0 0 0 0 0 0 0 0 0 0 0 0 0 0 0 0 0 0
0 0 0 0 0 0 0 0 0 0 0 0 0 0 0 0 0 0 0 0 0 0 0 0 0 0 0 0 0 0 0 0 0 0 0 0 0 0 0 0 0 0 0
0 0 0 0 0 0 0 0 0 0 0 0 0 0 0 0 0 0 0 0 0 0 0 0 0 0 0 0 0 0 0 0 0 0 0 0 0 0 0 0 0 0 0
0 0 0 0 0 0 0 0 0 0 0 0 0 0 0 0 0 0 0 0 0 0 0 0 0 0 0 0 0 0 0 0 0 0 0 0 0 0 0 0 0 0 0
0 0 0 0 0 0 0 0 0 0 0 0 0 0 0 0 0 0 0 0 0 0 0 0 0 0 0 0 0 0 0 0 0 0 0 0 0 0 0 0 0 0 0
0 0 0 0 0 0 0 0 0 0 0 0 0 0 0 0 0 0 0 0 0 0 0 0 0 0 0 0 0 0 0 0 0 0 0 0 0 0 0 0 0 0 0
0 0 0 0 0 0 0 0 0 0 0 0 0 0 0 0 0 0 0 0 0 0 0 0 0 0 0 0 0 0 0 0 0 0 0 0 0 0 0 0 0 0 0
Wind_Speed
2 1 1 1 2 2 2 2 2 2 1 1 1 1 1 1 2 2 2 9 12 11 11 12 12 11 12 12 11 11 11 10 10 9 9 8 8 8 8 8 8 8 7
2 2 2 1 1 2 2 2 2 2 2 1 1 1 2 2 2 2 1 4 9 9 9 10 10 11 11 11 11 11 11 10 10 9 9 9 9 9 9 9 9 8 8
1 1 1 1 1 1 1 1 1 1 1 0 1 1 1 2 2 2 2 1 3 6 8 8 8 8 10 11 11 11 11 11 11 11 11 10 10 10 9 9 9 9 9
1 1 1 0 1 0 1 1 1 1 1 0 0 1 0 1 2 2 2 2 2 2 5 7 7 7 9 10 11 11 11 12 12 12 11 11 11 10 10 11 10 10 10
2 1 1 0 1 0 0 1 1 1 1 1 1 0 0 0 1 1 2 2 2 2 2 4 6 7 8 9 10 11 12 12 12 12 12 12 12 12 12 11 11 11 11
3 2 1 1 1 1 1 0 1 1 2 2 1 1 1 1 1 1 1 2 2 2 2 1 2 3 6 8 9 10 11 12 12 12 12 12 12 12 12 12 12 11 11
3 3 2 2 2 1 0 0 0 1 1 2 2 2 2 3 3 2 2 2 2 2 2 2 1 1 2 6 8 10 11 12 12 12 12 12 13 13 13 13 12 12 12
4 3 3 2 2 2 2 1 0 1 1 1 2 2 1 1 3 3 2 2 2 2 3 3 3 3 2 2 5 9 11 13 14 14 14 14 13 13 13 13 13 12 12
4 4 3 3 2 2 1 1 1 1 1 1 1 2 2 2 1 2 3 4 3 3 3 3 4 4 4 3 4 8 12 13 14 14 14 14 13 13 13 13 13 12 11
5 5 4 4 3 2 2 2 2 0 1 1 1 0 1 3 3 2 2 3 5 5 4 4 5 5 5 4 6 10 12 12 13 13 13 13 13 13 13 12 12 11 10
6 6 5 4 4 3 2 2 2 1 0 1 1 1 1 1 2 3 3 2 4 4 4 5 4 4 5 5 4 9 11 11 11 12 12 12 12 12 11 11 11 10 9
4 6 5 5 4 4 3 2 2 2 1 1 1 1 2 2 2 3 4 3 3 3 4 4 4 5 5 5 7 12 12 11 10 10 10 10 11 11 10 10 9 9 8
3 5 5 5 4 4 4 3 3 2 2 2 2 1 1 1 2 3 5 4 3 2 3 4 4 4 5 5 5 11 10 10 9 8 9 9 10 9 9 8 8 7 6
3 4 5 5 5 5 5 4 3 3 3 3 3 2 2 2 2 3 4 5 5 3 3 2 2 3 3 3 5 7 6 9 8 8 8 8 8 7 7 7 6 6 6
3 5 5 5 6 6 6 5 4 4 4 4 4 3 3 2 3 3 3 4 5 5 3 1 1 1 2 3 4 3 3 6 6 6 6 6 5 5 5 5 5 5 5
4 5 5 6 6 7 7 6 5 5 6 5 4 5 4 3 3 3 3 3 3 4 4 2 2 2 3 3 4 2 2 4 3 3 4 4 4 4 4 4 4 4 4
5 5 6 6 7 7 7 6 7 7 7 7 6 6 5 5 4 4 3 4 4 4 7 3 2 2 3 3 2 1 1 1 1 3 3 4 4 4 4 4 4 4 3
6 6 7 7 7 8 7 7 7 8 8 8 7 7 6 5 6 4 4 5 4 4 7 7 3 2 2 2 2 1 1 1 1 3 5 5 5 5 5 5 5 5 4
7 7 8 8 7 7 7 7 7 7 8 7 7 7 6 7 7 5 5 5 5 5 5 6 4 2 1 1 2 0 1 0 2 3 5 6 7 6 6 6 6 6 6
7 7 8 8 7 7 7 7 7 7 8 8 8 7 6 6 6 6 6 6 6 6 6 5 4 3 2 1 2 1 0 1 1 1 2 3 5 7 8 8 8 8 8
8 7 8 8 8 7 7 6 7 7 7 8 8 8 8 9 9 6 6 5 6 5 5 5 4 2 2 2 1 0 1 1 1 1 0 1 2 2 4 7 9 10 10
7 7 8 8 8 7 10 11 8 7 7 7 7 6 7 9 10 11 10 8 7 6 5 4 3 3 1 1 1 1 1 1 1 1 1 2 1 3 3 4 8 10 11
6 7 6 7 7 8 12 11 11 7 7 7 6 6 6 7 8 7 9 11 8 7 7 6 5 3 2 2 2 2 1 1 2 2 1 2 1 3 4 5 10 11 12
5 5 5 6 6 8 11 10 10 8 7 7 6 6 6 7 6 6 7 8 7 5 4 4 4 3 2 2 2 2 2 1 1 1 1 1 2 2 3 3 7 10 11
4 4 4 5 6 7 10 10 8 6 6 7 6 6 6 6 8 9 8 7 6 5 5 5 4 3 3 3 3 3 3 3 2 3 1 1 1 2 3 3 4 7 9
3 3 4 4 5 5 8 9 7 4 5 4 4 6 8 7 8 8 6 5 5 3 3 3 4 4 3 2 2 2 3 2 1 2 2 1 1 1 3 3 3 3 3
Wind_Direction
155 162 170 182 195 209 208 213 221 221 207 208 227 234 183 181 193 206 210 198 194 189 186 187 190 190 189 186 184 180 177 174 169 165 161 159 155 147 141 135 130 124 120
149 165 166 180 205 215 216 210 217 209 206 196 207 205 180 165 178 185 190 196 186 179 179 182 188 191 192 189 185 181 177 174 167 161 155 148 143 140 137 132 128 125 120
143 146 146 177 221 223 210 205 206 170 184 242 266 227 188 177 169 167 157 170 185 188 184 182 184 187 190 188 184 180 174 169 163 156 150 145 141 137 134 129 126 121 116
88 101 109 259 276 217 195 205 186 136 143 178 280 307 249 183 156 162 162 166 169 184 194 182 178 180 185 183 180 176 171 166 161 155 151 147 140 134 129 123 118 114 110
55 70 63 341 337 358 260 231 175 160 168 170 141 92 103 121 156 155 143 155 161 164 169 178 176 175 174 173 172 169 164 160 155 153 150 145 137 131 125 121 117 115 112
35 43 40 13 19 46 359 329 210 169 156 152 110 79 65 59 76 72 106 121 133 147 147 145 150 162 165 167 164 158 152 150 149 147 145 141 137 131 126 123 120 115 110
30 42 31 17 14 26 329 298 174 151 154 144 112 84 58 55 63 63 69 92 105 124 111 105 101 96 153 154 149 147 145 139 133 131 135 134 132 127 125 122 117 111 106
26 39 38 22 10 9 10 9 98 184 186 161 136 137 140 57 34 38 55 81 78 83 83 82 82 77 82 105 129 137 133 130 129 126 125 123 122 119 119 118 114 110 106
33 35 34 30 13 14 360 348 350 199 203 180 152 161 161 170 116 36 38 54 63 70 72 67 72 75 85 86 100 111 120 123 124 122 122 123 122 122 120 117 113 110 107
29 27 28 28 23 18 10 356 4 318 184 178 177 134 135 143 147 127 46 43 51 54 56 68 68 65 70 77 90 106 108 110 116 120 123 123 123 123 122 119 117 115 111
28 25 26 24 21 17 15 17 11 14 298 168 155 142 109 88 105 132 130 84 56 41 47 57 64 63 63 72 80 97 97 100 108 116 121 124 123 121 119 117 115 113 111
22 21 24 22 19 17 16 14 20 32 32 82 99 111 135 144 147 131 132 120 93 53 43 47 58 59 58 65 90 99 95 94 98 106 114 120 121 119 118 117 117 116 115
24 13 19 18 17 16 20 22 31 30 40 66 75 84 92 107 128 126 125 125 111 88 54 40 41 59 68 59 82 97 97 96 97 101 105 109 112 115 118 117 117 115 113
24 14 21 24 22 23 27 27 33 29 47 60 62 69 79 78 94 121 133 134 121 98 74 65 40 56 73 73 82 81 91 99 101 100 102 106 111 118 120 119 120 117 111
32 31 32 31 27 28 30 31 40 38 49 57 57 63 68 71 76 82 103 126 135 136 124 121 96 73 92 87 90 79 82 104 102 104 111 112 114 119 123 125 126 123 120
30 32 34 35 33 33 34 39 42 42 53 51 59 66 66 69 77 79 91 92 104 124 124 131 129 137 128 122 128 111 108 113 115 127 136 136 137 142 141 140 144 146 149
37 41 39 40 40 37 34 43 47 47 53 51 50 61 65 70 74 69 78 86 92 105 116 104 94 111 115 127 120 111 130 137 177 186 182 174 168 170 167 167 170 175 179
49 50 48 46 45 41 37 44 49 49 52 53 51 59 60 71 71 69 76 81 89 98 121 122 113 107 119 143 136 156 198 199 207 217 210 201 197 198 198 198 202 206 211
53 51 50 46 40 37 39 44 51 52 54 53 52 60 61 71 70 73 80 85 91 95 97 116 113 98 90 112 109 145 187 273 231 220 216 217 218 218 219 220 222 226 230
58 53 51 45 40 37 38 44 53 53 54 51 50 54 57 67 77 83 85 87 95 95 96 103 103 91 81 80 94 98 4 304 265 236 224 217 226 232 233 233 233 234 236
62 57 52 43 36 38 36 47 56 60 57 54 49 49 56 67 73 82 98 97 99 98 100 101 98 83 69 79 116 192 148 322 305 272 264 258 232 243 245 243 242 242 241
58 57 52 48 41 35 40 53 62 58 55 55 51 45 52 53 62 71 84 94 107 116 115 108 102 106 105 128 144 120 109 83 304 285 148 275 212 248 250 240 244 245 245
62 58 49 48 42 30 42 54 62 65 60 55 53 50 55 50 52 63 66 66 70 95 120 129 125 141 153 180 137 103 128 161 226 251 134 280 280 265 259 252 247 244 245
63 58 49 46 45 30 41 58 66 64 61 53 52 56 60 47 51 71 74 67 57 52 82 103 130 150 159 165 152 155 170 140 337 328 131 238 291 274 279 272 264 252 249
61 54 50 49 47 26 37 61 72 66 62 48 42 46 57 56 56 75 77 73 60 37 54 78 99 115 128 134 135 92 67 68 21 324 336 151 295 306 304 293 286 273 261
76 69 53 42 46 35 39 62 74 74 67 48 35 32 43 60 61 70 76 76 64 23 22 30 34 26 31 28 75 128 138 123 124 303 293 123 302 360 330 301 293 294 284